Regional Weather Roundup
Issued by NWS

Home | Current Version | Previous Version | Text Only | Print | Product List | Glossary On
Versions: 1 2 3 4 5 6 7 8 9 10 11 12 13 14 15 16 17 18 19 20 21 22 23 24 25 26 27 28 29 30 31 32 33 34 35 36 37 38 39 40 41 42 43 44 45 46 47 48 49 50
000
ASUS43 KDTX 311701
RWRMI
MICHIGAN HOURLY REGIONAL WEATHER ROUNDUP
NATIONAL WEATHER SERVICE DETROIT/PONTIAC MI
1200 PM EST SAT JAN 31 2015

NOTE: "FAIR" INDICATES FEW OR NO CLOUDS BELOW 12,000 FEET WITH NO
SIGNIFICANT WEATHER AND/OR OBSTRUCTION TO VISIBILITY.

MIZ047>049-052>055-059>063-066>070-074>076-081>083-311800-
SOUTHEAST LOWER MICHIGAN

CITY           SKY/WX    TMP DP  RH WIND       PRES   REMARKS
ADRIAN         SUNNY     29  19  66 W12       30.25F WCI  19
ALMA           CLOUDY    29  23  79 S8        30.18F WCI  21
ANN ARBOR      SUNNY     29  19  66 SW9       30.23F WCI  20
BAD AXE        CLOUDY    25  18  76 SW8       30.19F WCI  16
CARO           PTSUNNY   29  20  68 SW6       30.18F WCI  23
DETROIT CITY   SUNNY     28  17  63 SW10      30.24F WCI  19
DETROIT        MOSUNNY   30  20  66 SW13      30.25F WCI  20
FLINT          SUNNY     30  20  66 SW8       30.20F WCI  22
GROSSE ILE     SUNNY     30  19  64 SW8       30.24F WCI  23
HILLSDALE      SUNNY     30  19  63 SW9       30.21F WCI  22
HOWELL         SUNNY     28  20  70 SW8       30.20F WCI  20

CITY           SKY/WX    TMP DP  RH WIND       PRES   REMARKS
JACKSON        SUNNY     29  19  66 W9        30.21F WCI  20
LAMBERTVILLE   SUNNY     32  21  64 SW9       30.26F WCI  24
LANSING        SUNNY     30  21  69 SW12      30.20F WCI  20
LAPEER         FAIR      27  18  68 SW8       30.20F WCI  19
MASON          SUNNY     29  19  67 SW8       30.21F WCI  21
MONROE         SUNNY     30  21  69 W14G21    30.25F WCI  20
MT. CLEMENS    MOSUNNY   27  17  68 S8        30.21F WCI  18
PONTIAC        PTSUNNY   27  18  69 SW8       30.19F WCI  19
PORT HOPE        N/A     24  15  68 SW10      30.17F WCI  14
PORT HURON     PTSUNNY   25  18  74 S9        30.24F WCI  15
TRI CITIES     CLOUDY    28  20  71 SW7       30.18F WCI  21
TROY           SUNNY     29  17  59 SW8       30.24F WCI  21
SAGINAW HB     PTSUNNY   30  21  69 SW10      30.18F WCI  21
$$
MIZ043>046-050>051-056>058-064>065-071>073-077>080-311800-
SOUTHWEST LOWER MICHIGAN

CITY           SKY/WX    TMP DP  RH WIND       PRES   REMARKS
BATTLE CREEK   CLOUDY    30  20  66 SW12      30.21F WCI  20
BENTON HARBOR  SUNNY     32  23  69 SW14      30.22F WCI  22
BIG RAPIDS     CLOUDY    29  24  81 W7        30.14S WCI  22
COLDWATER      MOSUNNY   31  21  65 SW12      30.22F WCI  22
FREMONT        CLOUDY    27  21  77 CALM      30.16S
HOLLAND        CLOUDY    31  25  78 S13       30.20F WCI  21
GRAND RAPIDS   CLOUDY    29  23  78 SW12      30.19F WCI  19
IONIA          CLOUDY    31  24  75 SW14      30.17F WCI  21
KALAMAZOO      CLOUDY    30  20  66 SW12      30.22F WCI  20
LUDINGTON      CLOUDY    31  21  68 NW6       30.17S WCI  25
MARSHALL       PTSUNNY   29  19  66 SW9       30.21F WCI  21
MOUNT PLEASANT CLOUDY    29  21  71 SW7       30.16F WCI  22
MUSKEGON       PTSUNNY   34  24  67 W13       30.17F WCI  25
SOUTH HAVEN    MOSUNNY   33  25  72 SW13      30.21F WCI  23
$$
MIZ016>042-311800-
NORTHERN LOWER MICHIGAN

CITY           SKY/WX    TMP DP  RH WIND       PRES   REMARKS
ALPENA         CLOUDY    21  15  78 SW7       30.13F WCI  12
BEAVER ISLAND  PTSUNNY   26  18  72 CALM      30.13S
BELLAIRE       CLOUDY    26  19  75 SW5       30.15S WCI  21
CADILLAC       CLOUDY    25  19  79 SW7       30.10S WCI  17
CHARLEVOIX     CLOUDY    25  19  78 NW12      30.17R WCI  15
FRANKFORT      CLOUDY    28  22  79 W9        30.16R WCI  19
GAYLORD        CLOUDY    21  17  84 SW9       30.08S WCI  11
GRAYLING       CLOUDY    23  17  78 SW7       30.11S WCI  15
HARBOR SPRINGS CLOUDY    25  18  75 W9G16     30.12S WCI  16
HOUGHTON LAKE  CLOUDY    22  17  81 SW6       30.12F WCI  14
MANISTEE       CLOUDY    28  21  74 NW9       30.17S WCI  20
OSCODA         CLOUDY    22  16  78 SW14      30.15F WCI   9
PELLSTON       CLOUDY    24  18  77 W7        30.12S WCI  16
TRAVERSE CITY  CLOUDY    26  18  71 W7        30.14R WCI  18
$$
MIZ007>008-015-311800-
EASTERN UPPER MICHIGAN

CITY           SKY/WX    TMP DP  RH WIND       PRES   REMARKS
KINROSS        CLOUDY    21  18  86 W5        30.08F WCI  15
MACKINAC ISLAN CLOUDY    24  16  73 W10       30.10S WCI  13
NEWBERRY       FLURRIES  20  16  84 SW6       30.08S WCI  12
S. S. MARIE    LGT SNOW  18  14  84 SW5       30.09F FOG     WCI  11
$$
MIZ004>006-011>014-085-311800-
CENTRAL UPPER MICHIGAN

CITY           SKY/WX    TMP DP  RH WIND       PRES   REMARKS
MANISTIQUE     CLOUDY    24  18  79 NW10      30.12S WCI  13
ESCANABA       CLOUDY    25  14  63 W8        30.16S WCI  16
MENOMINEE      CLOUDY    25  16  68 N8        30.17S WCI  16
SAWYER-GWINN   FLURRIES  23  18  80 N15       30.10R WCI  10
$$
MIZ001>003-009>011-084-311800-
WESTERN UPPER MICHIGAN

CITY           SKY/WX    TMP DP  RH WIND       PRES   REMARKS
IRON MOUNTAIN  CLOUDY    24  17  74 NW12      30.12R WCI  13
HOUGHTON       LGT SNOW  17  11  77 N15       30.16R WCI   2
COPPER HARBOR    N/A     19  12  74 NE20G30   30.18R WCI   3
IRONWOOD       CLOUDY    19  16  86 N10       30.17R WCI   8
$$

ABBREVIATIONS USED IN REMARKS
   TC - TEMPERATURE IN CELSIUS
  WCI - WIND CHILL INDEX
   HX - HEAT INDEX
  VSB - VISIBILITY



USA.gov is the U.S. government's official web portal to all federal, state and local government web resources and services.